Lake Charles Regional, LA

7:52 AM CST on December 09, 2019 (GMT -0600)
Lake Charles Regional

Weather History for KLCH - July, 2019

Change the Weather History Date:

Monday, July 22, 2019

  Actual Average Record
Temperature  
Mean Temperature 82 °F 83 °F  
Max Temperature 86 °F 91 °F 100 °F (1907)
Min Temperature 77 °F 75 °F 67 °F (1970)
Degree Days  
Heating Degree Days 0 0  
Month to date heating degree days 0 0  
Since 1 June heating degree days 0 0  
Since 1 July heating degree days 0 0  
Cooling Degree Days 17 18  
Month to date cooling degree days 432 393  
Year to date cooling degree days 1602 1411  
Since 1 June cooling degree days 959 873  
Growing Degree Days 32 (Base 50)    
Moisture  
Dew Point 75 °F    
Average Humidity 87    
Maximum Humidity 94    
Minimum Humidity 79    
Precipitation  
Precipitation 0.08 in 0.17 in 3.15 in (1942)
Month to date precipitation 3.23 4.08  
Year to date precipitation 41.31 31.81  
Snow  
Snow 0.00 in 0.00 in 0.00 in ()
Month to date snowfall 0.0 0.0  
Since 1 June snowfall 0.0 0.0  
Since 1 July snowfall 0.0 0.0  
Snow Depth 0.00 in    
Sea Level Pressure  
Sea Level Pressure 30.00 in    
Wind  
Wind Speed 3 mph (WSW)    
Max Wind Speed 10 mph    
Max Gust Speed 13 mph    
Visibility 9 miles    
Events Rain , Thunderstorm    
T = Trace of Precipitation, MM = Missing Value Source: NWS Daily Summary

Daily Weather History Graph

Daily Weather History Graph

Search for Another Location

Airport or City:

Astronomy

Jul. 22, 2019 Rise Set
Actual Time 6:25 AM CDT 8:12 PM CDT
Civil Twilight 5:59 AM CDT 8:39 PM CDT
Nautical Twilight 5:27 AM CDT 9:11 PM CDT
Astronomical Twilight 4:53 AM CDT 9:44 PM CDT
Moon 11:55 PM CDT (7/22) 11:23 AM CDT (7/22)
Length of Visible Light 14h 40m
Length of Day
13h 47m
Waning Gibbous, 72% of the Moon is Illuminated
Jul 22
Waning Gibbous
Jul 24
Last Quarter
Jul 31
New
Aug 7
First Quarter
Aug 15
Full

Hourly Weather History & Observations

Time (CDT) Temp. Heat Index Dew Point Humidity Pressure Visibility Wind Dir Wind Speed Gust Speed Precip Events Conditions
12:53 AM 77.0 °F - 73.9 °F 90% 29.97 in 10.0 mi Calm Calm - N/A   Clear
1:53 AM 77.0 °F - 75.0 °F 94% 29.98 in 10.0 mi Calm Calm - N/A   Clear
2:53 AM 77.0 °F - 73.9 °F 90% 29.99 in 10.0 mi NNE 3.5 mph - N/A   Clear
3:53 AM 77.0 °F - 75.0 °F 94% 29.99 in 10.0 mi Calm Calm - N/A   Clear
4:53 AM 78.1 °F - 75.0 °F 90% 29.99 in 10.0 mi Calm Calm - N/A   Clear
5:53 AM 78.1 °F - 75.0 °F 90% 30.00 in 10.0 mi East 3.5 mph - N/A   Clear
6:53 AM 78.1 °F - 75.9 °F 93% 30.01 in 9.0 mi Calm Calm - N/A   Clear
7:53 AM 79.0 °F - 75.0 °F 88% 30.02 in 10.0 mi SE 3.5 mph - N/A   Scattered Clouds
8:53 AM 82.9 °F 90.8 °F 75.9 °F 79% 30.04 in 10.0 mi Calm Calm - N/A   Partly Cloudy
9:37 AM 81.0 °F 87.3 °F 75.9 °F 85% 30.01 in 9.0 mi SSW 4.6 mph - N/A   Mostly Cloudy
9:44 AM 81.0 °F 86.7 °F 75.0 °F 82% 30.01 in 7.0 mi South 3.5 mph - 0.00 in Rain , Thunderstorm Light Rain
9:53 AM 80.1 °F 85.1 °F 75.0 °F 85% 30.04 in 10.0 mi South 3.5 mph - 0.00 in Rain , Thunderstorm Light Rain
10:05 AM 80.1 °F 85.1 °F 75.0 °F 85% 30.01 in 10.0 mi Variable 3.5 mph - 0.00 in   Overcast
10:09 AM 80.1 °F 85.1 °F 75.0 °F 85% 30.01 in 10.0 mi SE 4.6 mph - 0.00 in Thunderstorm Overcast
10:20 AM 80.1 °F 85.1 °F 75.0 °F 85% 30.01 in 10.0 mi SSE 5.8 mph - 0.00 in Thunderstorm Thunderstorm
10:27 AM 80.1 °F 85.4 °F 75.9 °F 87% 30.01 in 10.0 mi South 4.6 mph - 0.00 in Thunderstorm Thunderstorm
10:46 AM 79.0 °F - 75.0 °F 88% 30.02 in 2.5 mi West 9.2 mph - 0.00 in Rain , Thunderstorm Heavy Thunderstorms and Rain
10:49 AM 78.8 °F - 73.4 °F 83% 30.02 in 1.2 mi WSW 6.9 mph - 0.03 in Rain , Thunderstorm Heavy Thunderstorms and Rain
10:53 AM 78.1 °F - 75.0 °F 90% 30.05 in 1.2 mi WSW 4.6 mph - 0.07 in Rain , Thunderstorm Light Thunderstorms and Rain
10:56 AM 78.1 °F - 75.0 °F 90% 30.02 in 1.8 mi WSW 3.5 mph - 0.00 in Rain , Thunderstorm Light Thunderstorms and Rain
10:58 AM 78.1 °F - 75.0 °F 90% 30.02 in 4.0 mi Calm Calm - 0.00 in Rain , Thunderstorm Light Thunderstorms and Rain
11:15 AM 78.1 °F - 73.9 °F 87% 30.03 in 8.0 mi West 6.9 mph - 0.01 in Rain Light Rain
11:40 AM 79.0 °F - 75.0 °F 88% 30.03 in 9.0 mi West 4.6 mph - 0.01 in Thunderstorm Overcast
11:53 AM 80.1 °F 85.4 °F 75.9 °F 87% 30.06 in 9.0 mi WNW 4.6 mph - 0.01 in   Overcast
12:53 PM 78.1 °F - 73.9 °F 87% 30.04 in 7.0 mi WNW 5.8 mph - 0.00 in Rain Light Rain
1:14 PM 79.0 °F - 75.0 °F 88% 30.01 in 9.0 mi Calm Calm - 0.00 in Thunderstorm Mostly Cloudy
1:29 PM 80.1 °F 85.1 °F 75.0 °F 85% 30.00 in 8.0 mi West 3.5 mph - 0.00 in   Partly Cloudy
1:53 PM 81.0 °F 87.9 °F 77.0 °F 88% 30.02 in 8.0 mi WNW 3.5 mph - 0.00 in   Clear
2:53 PM 82.9 °F 91.8 °F 77.0 °F 82% 30.00 in 10.0 mi WSW 3.5 mph - N/A   Mostly Cloudy
3:24 PM 84.9 °F 96.6 °F 78.1 °F 80% 29.98 in 10.0 mi NW 3.5 mph - N/A Thunderstorm Partly Cloudy
3:53 PM 82.9 °F 91.8 °F 77.0 °F 82% 29.99 in 8.0 mi NNW 6.9 mph - N/A Thunderstorm Clear
4:02 PM 82.9 °F 91.8 °F 77.0 °F 82% 29.97 in 9.0 mi NNW 5.8 mph - N/A   Partly Cloudy
4:53 PM 84.9 °F 96.6 °F 78.1 °F 80% 29.98 in 10.0 mi NW 4.6 mph - N/A   Partly Cloudy
5:53 PM 84.0 °F 93.7 °F 77.0 °F 79% 29.96 in 10.0 mi SW 5.8 mph - N/A   Clear
6:53 PM 82.0 °F 88.6 °F 75.0 °F 79% 29.96 in 10.0 mi SW 4.6 mph - N/A   Clear
7:53 PM 80.1 °F 84.5 °F 73.9 °F 81% 29.97 in 10.0 mi West 3.5 mph - N/A   Clear
8:53 PM 78.1 °F - 75.0 °F 90% 29.99 in 10.0 mi Calm Calm - N/A   Clear
9:53 PM 77.0 °F - 75.0 °F 94% 29.99 in 10.0 mi Calm Calm - N/A   Clear
10:53 PM 78.1 °F - 73.9 °F 87% 29.97 in 9.0 mi Calm Calm - N/A   Clear
11:53 PM 79.0 °F - 75.0 °F 88% 29.99 in 9.0 mi Calm Calm - N/A   Overcast